UTTI_(FIN-AFB) current weather conditions

sailwx.info

Wind from 340 at 1 knots

Air temperature -7.0° C
Visibility: greater than 5.4 NM
Dewpoint -8.0° C

Last reported at 2018-Jan-20 17:50 UTC.
Time now 2018-Jan-20 19:15 UTC

Location: N 60°54' E 026°56'.
View on Google Maps.

See reports from other nearby stations

  
Tides and Currents Weather Stations Pressure Air Temp Water Temp Dewpoint Dewpoint Depression Visibility Wind Speed Wind Dir Waves Ship Positions
date/time (UTC)wind fromknots sea level pressurealtimeterstation pressurevisibilityair tempwater tempwave heightnotes
2018-Jan-20 17:50 340 1 5.4-7.0
2018-Jan-20 17:20 350 1 5.4-6.0
2018-Jan-20 16:50 360 4 5.4-6.0
2018-Jan-20 16:20 020 4 5.4-6.0
2018-Jan-20 15:50 010 4 5.4-5.0
2018-Jan-20 15:20 010 5 5.4-5.0
2018-Jan-20 14:50 020 4 5.4-5.0
2018-Jan-20 14:20 010 2 5.4-5.0
2018-Jan-20 13:50 030 2 5.4-5.0
2018-Jan-20 13:20 040 4 5.4-5.0
2018-Jan-20 12:50 030 2 5.4-5.0
2018-Jan-20 12:20 360 2 5.4-5.0
2018-Jan-20 11:50 350 2 5.4-5.0
2018-Jan-20 11:20 360 4 5.4-5.0
2018-Jan-20 10:50 350 2 5.4-5.0
2018-Jan-20 10:20 360 2 5.4-5.0
2018-Jan-20 09:50 020 4 5.4-5.0
2018-Jan-20 09:20 010 4 5.4-5.0
2018-Jan-20 08:50 010 5 5.4-4.0
2018-Jan-20 08:20 020 2 5.4-4.0
2018-Jan-20 07:50 350 4 5.4-3.0
2018-Jan-20 07:20 010 4 4.9-3.0 Light snow showers.
2018-Jan-20 06:50 360 4 4.9-3.0 Light snow.
2018-Jan-20 06:20 350 2 3.2-3.0 Light snow.
2018-Jan-20 05:50 350 2 2.7-3.0
2018-Jan-20 05:20 350 2 2.6-3.0
2018-Jan-20 04:50 350 2 3.8-3.0
2018-Jan-20 04:20 340 1 3.8-3.0
2018-Jan-20 03:50 360 1 3.8-3.0
2018-Jan-20 03:20 350 1 3.8-3.0
2018-Jan-20 02:50 350 1 4.3-3.0
2018-Jan-20 02:20 340 1 4.3-3.0
2018-Jan-20 01:50 360 2 4.3-3.0
2018-Jan-20 01:20 350 1 3.8-4.0
2018-Jan-20 00:50 350 1 4.3-4.0
2018-Jan-20 00:20 040 2 5.4-3.0
2018-Jan-19 23:50 060 5 4.9-3.0
2018-Jan-19 23:20 040 4 3.2-3.0
2018-Jan-19 22:50 040 5 2.5-3.0 Mist.
2018-Jan-19 22:20 040 4 2.5-3.0 Mist.
2018-Jan-19 21:50 040 5 2.3-3.0 Mist.
2018-Jan-19 21:20 060 5 2.5-3.0 Mist.
2018-Jan-19 20:50 050 6 3.2-3.0
2018-Jan-19 20:20 050 6 3.2-3.0
2018-Jan-19 19:50 050 5 2.7-3.0
2018-Jan-19 19:20 050 4 3.2-2.0
2018-Jan-19 18:50 060 2 2.6-2.0
2018-Jan-19 18:20 060 2 2.7-2.0
2018-Jan-19 17:50 080 2 3.2-2.0
2018-Jan-19 17:20 100 2 3.2-2.0
2018-Jan-19 16:50 100 2 3.2-2.0
2018-Jan-19 16:20 120 2 3.8-2.0
2018-Jan-19 15:50 120 4 2.7-2.0
2018-Jan-19 15:20 150 2 2.7-2.0
2018-Jan-19 14:50 120 6 2.7-2.0
2018-Jan-19 14:20 130 6 2.7-2.0 Mist.
2018-Jan-19 13:50 140 5 1.2-2.0 Mist.
2018-Jan-19 13:20 130 6 0.9-2.0 Mist.
2018-Jan-19 12:50 110 5 1.2-2.0 Light snow. Mist.
2018-Jan-19 12:20 110 4 1.7-2.0 Light snow. Mist.
2018-Jan-19 11:50 100 4 1.6-3.0 Light snow.
2018-Jan-19 11:20 100 4 3.8-3.0 Light snow.
2018-Jan-19 10:50 110 4 4.3-3.0 Light snow.
2018-Jan-19 10:20 100 6 4.9-3.0 Light snow. Snow grains.
2018-Jan-19 09:50 090 4 5.4-4.0 Light snow. Snow grains.
2018-Jan-19 09:20 090 4 3.8-4.0 Light snow. Snow grains.
2018-Jan-19 08:50 070 2 4.3-4.0 Light snow. Snow grains.
2018-Jan-19 08:20 090 2 5.4-4.0 Light snow. Snow grains.
2018-Jan-19 07:50 090 5 5.4-5.0 Light snow. Snow grains.
2018-Jan-19 07:20 080 6 5.4-5.0 Light snow. Snow grains.
2018-Jan-19 06:50 080 5 5.4-5.0 Light snow. Snow grains.
2018-Jan-19 06:20 080 5 3.2-6.0 Light snow. Snow grains.
2018-Jan-19 05:50 080 4 5.4-6.0 Light freezing drizzle. Snow.
2018-Jan-19 05:20 070 2 5.4-6.0 Light freezing drizzle. Snow.
2018-Jan-19 04:50 080 5 5.4-6.0 Light snow.
2018-Jan-19 04:20 110 2 5.4-6.0 Light snow.
2018-Jan-19 03:50 100 4 5.4-7.0 Light snow.
2018-Jan-19 03:20 100 4 5.4-7.0 Light snow.
2018-Jan-19 02:50 110 5 5.4-7.0 Light snow.
2018-Jan-19 02:20 090 4 5.4-7.0 Light snow showers.
2018-Jan-19 01:50 090 5 5.4-7.0
2018-Jan-19 01:20 100 6 5.4-7.0 Light snow.
2018-Jan-19 00:50 100 6 3.2-7.0 Light snow.
2018-Jan-19 00:20 100 6 5.4-7.0 Light snow.
2018-Jan-18 23:50 090 6 5.4-7.0 Light snow.
2018-Jan-18 23:20 080 7 2.3-7.0 Light snow.
2018-Jan-18 22:50 080 7 5.4-7.0 Light snow.
2018-Jan-18 22:20 070 7 3.2-8.0 Light snow.
2018-Jan-18 21:50 070 8 5.4-8.0 Light snow.
2018-Jan-18 21:20 070 8 5.4-7.0 Light snow.
2018-Jan-18 20:50 080 8 4.9-8.0 Light snow.
2018-Jan-18 20:20 070 9 3.2-7.0 Light snow.
2018-Jan-18 19:50 080 8 3.2-7.0 Light snow.
2018-Jan-18 19:20 080 7 1.3-7.0 Light snow.